Total_Precipitation_Accumulation
0.05 0.11 0.31 0.41 0.44 0.47 0.50 0.52 0.52 0.50 0.49 0.52 0.56 0.62 0.63 0.65 0.65 0.64 0.64 0.64 0.68 0.78 0.84 0.94 0.99 1.01 0.92 0.79 0.71 0.62 0.55 0.48 0.46 0.45 0.48 0.56 0.61 0.57 0.48 0.41 0.33 0.44 0.64
0.08 0.13 0.29 0.36 0.42 0.44 0.47 0.50 0.52 0.50 0.51 0.54 0.53 0.60 0.63 0.65 0.67 0.69 0.72 0.70 0.73 0.81 0.84 0.94 0.96 0.95 0.88 0.75 0.69 0.58 0.49 0.43 0.36 0.32 0.31 0.36 0.52 0.58 0.50 0.45 0.44 0.64 0.72
0.06 0.12 0.25 0.35 0.41 0.44 0.46 0.48 0.48 0.49 0.51 0.56 0.57 0.60 0.64 0.66 0.68 0.74 0.77 0.78 0.79 0.85 0.88 0.91 0.88 0.86 0.82 0.76 0.73 0.65 0.52 0.47 0.36 0.26 0.22 0.24 0.40 0.58 0.58 0.53 0.54 0.72 0.76
0.05 0.10 0.20 0.34 0.42 0.47 0.49 0.49 0.49 0.50 0.53 0.58 0.61 0.64 0.66 0.68 0.69 0.74 0.76 0.78 0.79 0.82 0.90 0.90 0.87 0.87 0.84 0.82 0.74 0.62 0.52 0.46 0.34 0.24 0.14 0.19 0.42 0.68 0.66 0.59 0.57 0.69 0.74
0.06 0.10 0.21 0.35 0.45 0.53 0.55 0.53 0.53 0.57 0.60 0.65 0.67 0.71 0.73 0.75 0.76 0.77 0.75 0.73 0.72 0.71 0.75 0.77 0.81 0.88 0.88 0.83 0.75 0.64 0.55 0.45 0.31 0.18 0.13 0.23 0.47 0.72 0.66 0.64 0.63 0.68 0.71
0.09 0.14 0.24 0.39 0.51 0.59 0.61 0.59 0.58 0.62 0.67 0.72 0.77 0.79 0.83 0.89 0.88 0.84 0.79 0.79 0.72 0.67 0.69 0.73 0.77 0.86 0.85 0.79 0.75 0.73 0.73 0.56 0.32 0.17 0.16 0.22 0.36 0.61 0.70 0.79 0.81 0.75 0.71
0.14 0.22 0.30 0.46 0.60 0.67 0.70 0.68 0.67 0.71 0.74 0.77 0.81 0.85 0.89 0.94 0.95 0.88 0.83 0.80 0.79 0.76 0.74 0.75 0.78 0.85 0.82 0.76 0.74 0.73 0.77 0.58 0.33 0.26 0.19 0.19 0.31 0.57 0.85 0.98 1.02 0.89 0.79
0.17 0.26 0.39 0.61 0.69 0.73 0.80 0.81 0.79 0.82 0.85 0.86 0.89 0.94 0.98 0.98 0.98 0.97 0.90 0.82 0.83 0.83 0.80 0.79 0.82 0.83 0.76 0.71 0.69 0.68 0.65 0.45 0.37 0.39 0.32 0.32 0.43 0.71 0.93 1.12 1.10 0.95 0.86
0.28 0.37 0.47 0.66 0.78 0.85 0.95 0.99 0.95 0.96 0.98 0.96 0.98 1.02 1.07 1.05 1.04 1.01 0.96 0.88 0.86 0.86 0.90 0.86 0.82 0.77 0.70 0.66 0.66 0.65 0.56 0.40 0.35 0.49 0.46 0.57 0.55 0.78 0.91 1.06 1.14 1.05 0.93
0.40 0.48 0.57 0.70 0.82 0.92 1.04 1.13 1.17 1.16 1.15 1.17 1.17 1.08 1.08 1.16 1.18 1.14 1.02 0.96 0.94 0.92 0.94 0.95 0.87 0.76 0.68 0.63 0.60 0.58 0.50 0.39 0.30 0.41 0.66 0.64 0.58 0.90 1.04 1.05 1.12 1.10 1.04
0.54 0.60 0.72 0.80 0.88 0.97 1.05 1.14 1.33 1.45 1.43 1.38 1.36 1.25 1.25 1.25 1.22 1.17 1.06 1.01 0.95 0.96 0.92 0.98 1.00 0.89 0.79 0.70 0.65 0.56 0.47 0.35 0.30 0.39 0.49 0.51 0.64 0.92 1.18 1.22 1.20 1.14 1.05
0.54 0.65 0.78 0.93 1.00 1.12 1.17 1.25 1.38 1.50 1.54 1.46 1.25 1.27 1.34 1.23 1.19 1.13 1.13 1.15 1.05 1.02 0.99 0.98 1.01 0.98 0.88 0.73 0.69 0.61 0.42 0.33 0.31 0.27 0.29 0.35 0.57 0.88 1.13 1.28 1.36 1.32 1.18
0.54 0.67 0.82 1.01 1.17 1.27 1.27 1.26 1.30 1.39 1.48 1.48 1.30 1.15 1.18 1.24 1.24 1.26 1.17 1.21 1.20 1.14 1.15 1.09 1.05 0.96 0.85 0.76 0.72 0.63 0.45 0.37 0.33 0.27 0.25 0.32 0.44 0.69 0.98 1.22 1.37 1.44 1.39
0.59 0.72 0.89 1.04 1.22 1.35 1.40 1.37 1.31 1.31 1.37 1.39 1.37 1.31 1.21 1.20 1.14 1.10 1.09 1.03 1.03 1.00 1.01 1.03 0.94 0.88 0.82 0.75 0.70 0.65 0.56 0.47 0.37 0.34 0.28 0.32 0.39 0.50 0.73 0.96 1.15 1.36 1.49
0.62 0.75 0.98 1.13 1.25 1.41 1.53 1.51 1.47 1.39 1.26 1.31 1.40 1.48 1.36 1.20 1.12 1.10 1.06 1.02 0.97 0.93 0.91 0.90 0.84 0.79 0.75 0.71 0.68 0.63 0.57 0.49 0.41 0.39 0.33 0.35 0.37 0.43 0.59 0.80 0.99 1.26 1.55
0.63 0.78 1.04 1.21 1.28 1.46 1.54 1.50 1.50 1.52 1.40 1.40 1.42 1.41 1.48 1.41 1.24 1.21 1.17 1.06 1.00 0.95 0.90 0.88 0.84 0.79 0.75 0.70 0.65 0.57 0.55 0.53 0.48 0.47 0.42 0.40 0.39 0.39 0.50 0.69 0.89 1.11 1.46
0.65 0.81 1.05 1.25 1.39 1.50 1.50 1.51 1.53 1.55 1.54 1.47 1.42 1.41 1.50 1.50 1.47 1.36 1.30 1.20 1.06 1.02 1.01 0.98 0.95 0.88 0.84 0.76 0.70 0.62 0.54 0.51 0.48 0.49 0.49 0.46 0.46 0.42 0.45 0.59 0.73 0.94 1.19
0.75 0.81 0.99 1.23 1.38 1.49 1.54 1.53 1.52 1.54 1.56 1.54 1.51 1.46 1.48 1.58 1.59 1.61 1.48 1.35 1.19 1.16 1.14 1.10 1.04 1.00 0.90 0.83 0.78 0.70 0.61 0.56 0.49 0.46 0.46 0.47 0.50 0.49 0.47 0.52 0.59 0.75 0.98
0.79 0.86 0.99 1.18 1.30 1.42 1.58 1.65 1.58 1.55 1.58 1.64 1.64 1.57 1.48 1.57 1.69 1.76 1.77 1.62 1.46 1.39 1.30 1.18 1.07 1.01 0.97 0.90 0.86 0.79 0.69 0.61 0.56 0.54 0.48 0.42 0.42 0.48 0.50 0.52 0.56 0.62 0.79
0.85 0.93 1.02 1.15 1.31 1.41 1.64 1.80 1.82 1.69 1.64 1.66 1.67 1.56 1.54 1.60 1.63 1.66 1.74 1.79 1.72 1.63 1.53 1.39 1.24 1.07 0.96 0.93 0.94 0.94 0.82 0.70 0.63 0.59 0.58 0.50 0.42 0.42 0.48 0.52 0.55 0.57 0.66
0.93 0.96 1.06 1.10 1.28 1.43 1.58 1.75 1.79 1.73 1.64 1.63 1.57 1.50 1.45 1.52 1.59 1.62 1.55 1.63 1.68 1.64 1.55 1.47 1.38 1.29 1.14 1.02 1.07 1.14 1.09 0.89 0.73 0.66 0.63 0.62 0.54 0.46 0.45 0.50 0.55 0.59 0.62
0.98 0.97 1.06 1.15 1.27 1.32 1.41 1.54 1.68 1.70 1.67 1.65 1.58 1.58 1.48 1.45 1.48 1.59 1.61 1.54 1.54 1.55 1.53 1.46 1.38 1.32 1.27 1.14 1.09 1.18 1.22 1.19 0.93 0.69 0.63 0.62 0.61 0.58 0.53 0.50 0.52 0.59 0.65
0.99 1.02 1.03 1.15 1.28 1.33 1.44 1.58 1.72 1.90 1.88 1.87 1.71 1.57 1.51 1.47 1.42 1.44 1.54 1.58 1.53 1.49 1.48 1.44 1.35 1.24 1.21 1.12 0.98 1.12 1.22 1.09 0.90 0.73 0.64 0.57 0.55 0.59 0.58 0.53 0.51 0.52 0.59
0.92 1.03 1.06 1.18 1.30 1.34 1.49 1.64 1.64 1.76 1.77 1.65 1.51 1.46 1.43 1.43 1.43 1.38 1.37 1.45 1.51 1.47 1.39 1.37 1.37 1.30 1.25 1.22 1.06 0.92 0.94 0.90 0.92 0.80 0.69 0.65 0.61 0.58 0.58 0.56 0.53 0.50 0.52
0.84 0.96 1.05 1.19 1.33 1.38 1.44 1.60 1.62 1.56 1.56 1.58 1.57 1.50 1.48 1.47 1.42 1.37 1.34 1.36 1.39 1.40 1.32 1.28 1.33 1.36 1.33 1.24 1.13 0.96 0.86 0.76 0.75 0.85 0.73 0.65 0.71 0.68 0.63 0.63 0.60 0.57 0.53
0.81 0.94 1.05 1.15 1.25 1.34 1.38 1.51 1.63 1.56 1.49 1.51 1.57 1.58 1.54 1.54 1.49 1.36 1.26 1.27 1.25 1.24 1.24 1.21 1.22 1.23 1.25 1.24 1.14 1.02 0.97 0.93 0.79 0.80 0.78 0.63 0.63 0.67 0.69 0.71 0.72 0.67 0.62